Location: Irma
(52.9170°N, 111.2330°W)
Time: 12:22:47
(UTC-06:00)

Daily predictions for brighter satellites

Satellite Brightness Start Highest point End
(mag) Time Altitude Azimuth Time Altitude Azimuth Time Altitude Azimuth
Cosmos 2016 Rocket 4.5 22:01:44 10° SSW 22:07:47 65° WNW 22:13:56 10° N
Cosmos 2360 Rocket 2.8 22:03:12 10° NNW 22:08:42 50° NE 22:14:10 10° SE
Cosmos 1980 Rocket 3.6 22:06:07 10° NW 22:11:12 35° WSW 22:16:17 10° S
Cosmos 1666 3.0 22:08:06 10° NNW 22:11:59 72° W 22:15:50 10° S
Meteor 1-18 Rocket 4.4 22:06:54 10° SSW 22:12:46 89° WNW 22:18:45 10° NNE
Cosmos 1743 2.9 22:09:46 10° NNW 22:13:38 75° W 22:17:27 10° S
SL-08 RB Rocket 3.8 22:09:21 10° SSE 22:13:53 86° WSW 22:18:30 10° NNW
CZ-4C R/B 3.5 22:08:06 10° NW 22:14:28 48° NNE 22:21:48 10° E
Cosmos 2219 Rocket 3.8 22:10:18 10° NNW 22:14:57 26° NE 22:19:35 10° E
MetOp-B 4.3 22:10:54 10° SSE 22:16:16 79° WSW 22:21:40 10° NNW
Meteor 2-9 Rocket 4.2 22:11:09 10° N 22:16:29 70° ENE 22:21:51 10° SSE
Cosmos 1570 Rocket 4.1 22:11:51 10° S 22:17:06 63° ESE 22:22:26 10° NNE
Cosmos 1725 Rocket 4.3 22:11:15 10° SSW 22:17:25 73° WNW 22:23:41 10° N
Cosmos 2333 Rocket 3.8 22:16:07 10° NNW 22:20:53 26° NE 22:25:38 10° E
Cosmos 1763 Rocket 4.2 22:16:37 10° SSE 22:21:21 34° ESE 22:26:06 10° NE
COSMOS 2428 3.9 22:19:26 10° NNW 22:24:38 35° NE 22:29:48 10° ESE
Helios 1B rocket 3.6 22:21:55 10° NE 22:25:27 26° E 22:28:57 10° SSE
USA 238 DEB 3.7 22:19:31 10° SW 22:26:23 77° SE 22:33:25 10° NE
USA 238 3.7 22:19:38 10° SW 22:26:30 77° SE 22:33:31 10° NE
SPOT 1/Viking Rocket 3.7 22:21:53 10° SSE 22:27:01 69° ENE 22:32:11 10° NNW
BREEZE-M DEB 4.4 22:24:52 10° WSW 22:28:19 45° S 22:30:56 10° ESE
Cosmos 1455 Rocket 3.1 22:24:15 10° N 22:28:36 70° ENE 22:32:58 10° SSE
ATLAS CENTAUR R/B 3.8 22:26:48 10° WNW 22:29:50 18° WSW 22:32:59 10° SSW
Cosmos 304 Rocket 3.8 22:25:01 10° SSW 22:29:50 85° ESE 22:34:42 10° NNE
Cosmos 1340 Rocket 3.7 22:27:30 10° SSE 22:31:10 34° E 22:34:53 10° NNE
H-2A R/B 2.4 22:26:17 10° S 22:31:11 64° WSW 22:36:13 10° NNW
Cosmos 1242 Rocket 3.4 22:28:22 10° NNW 22:31:58 50° W 22:35:30 10° S
Cosmos 1833 Rocket 4.1 22:27:10 10° WSW 22:32:34 45° NW 22:37:58 10° NNE
IGS 5A 4.0 22:29:53 10° SE 22:33:50 45° ENE 22:37:51 10° N
Iridium 2 3.7 22:30:09 10° S 22:33:58 83° E 22:37:50 10° N
Meteor 2-4 Rocket 3.9 22:29:16 10° S 22:34:32 54° E 22:39:59 10° NNE
deb Kosmos-1763 4.3 22:34:13 10° S 22:37:49 50° ESE 22:41:26 10° NE
Cosmos 1356 4.5 22:36:29 11° SSE 22:39:19 29° E 22:42:23 10° NNE
Cosmos 1898 Rocket 4.3 22:34:48 10° NW 22:39:53 49° WSW 22:44:58 10° S
DNEPR-1 R/B 3.7 22:38:34 10° SSW 22:42:55 71° SE 22:48:02 10° NE
Cosmos 1975 Rocket 3.1 22:39:17 10° SSW 22:43:38 81° WNW 22:47:59 10° N
Cosmos 2208 Rocket 4.0 22:38:34 10° SSW 22:43:46 87° ESE 22:48:59 10° NNE
Meteor 1-29 4.1 22:41:52 10° NE 22:44:55 27° E 22:47:22 13° SSE
SL-23 DEB 4.0 22:42:46 10° WSW 22:46:15 64° SSE 22:51:42 10° E
Spot 1 4.0 22:43:17 12° SSE 22:47:05 66° ENE 22:51:09 10° N
COSMOS 2487 4.1 22:45:10 10° SW 22:48:28 38° WNW 22:51:49 10° NNE
Resurs 01 Rocket 4.4 22:47:26 10° WSW 22:49:22 13° W 22:51:19 10° WNW
Meteor 1-13 Rocket 4.4 22:43:46 10° S 22:49:39 79° E 22:55:39 10° NNE
USA 234 3.3 22:44:45 10° ENE 22:51:21 81° SSE 22:57:57 10° WSW
Cosmos 2322 3.9 22:46:07 10° NNW 22:51:53 71° NE 22:57:01 13° SE
Cosmos 1125 Rocket 3.9 22:47:57 10° NNW 22:53:10 55° ENE 22:57:44 13° SE
Cosmos 1814 Rocket 4.2 22:48:25 10° S 22:53:32 55° ESE 22:58:44 10° NNE
ERS-1 Rocket 3.7 22:49:01 10° S 22:53:53 50° W 22:58:48 10° NNW
Meteor 1-15 Rocket 4.3 22:48:14 10° N 22:54:05 73° ENE 22:59:15 13° SSE
Cosmos 1544 Rocket 3.9 22:50:59 10° NNW 22:55:23 67° W 22:59:47 10° S
Cosmos 1515 4.0 22:56:30 12° S 22:59:51 51° E 23:03:36 10° NNE
Cosmos 292 Rocket 4.2 22:55:30 10° S 22:59:59 42° ESE 23:04:28 10° NE
NOSS 3-2 (A) 3.5 22:54:04 10° SW 23:00:07 77° SE 23:06:58 10° NE
Cosmos 2322 Rocket 3.1 22:54:57 10° NW 23:00:14 43° WSW 23:05:29 10° S
H-2A R/B 4.5 23:00:06 10° ENE 23:01:46 12° NE 23:03:26 10° NNE
Cosmos 2082 Rocket 4.1 22:58:03 10° WSW 23:03:11 34° NW 23:08:23 10° NNE
Cosmos 2237 Rocket 3.7 22:58:24 10° NNW 23:03:20 29° NE 23:08:15 10° E
NOSS 3-2 (C) 3.5 22:57:34 10° SSW 23:03:33 64° SE 23:10:16 10° NE
Cosmos 1092 Rocket 4.5 22:57:56 10° N 23:04:08 52° ENE 23:09:22 15° SE
SL-16 R/B 3.3 23:01:33 10° NW 23:06:44 37° WSW 23:11:53 10° S
Nadezhda 4 Rocket 4.1 23:04:36 10° N 23:10:55 77° E 23:16:22 14° SSE
SJ 16-02 1.3 23:11:13 10° NNW 23:15:42 89° NE 23:19:00 18° SSE
SPOT 5 3.6 23:12:36 10° S 23:16:48 44° W 23:21:11 10° NNW
Cosmos 1536 Rocket 3.6 23:12:42 12° S 23:16:51 75° E 23:21:19 10° NNE
Cosmos 2237 4.3 23:12:27 10° NNW 23:18:13 83° WSW 23:22:45 17° SSE
Helios 1A 4.3 23:17:28 10° SSW 23:21:17 35° W 23:25:07 10° NNW
Landsat 7 4.4 23:18:33 12° S 23:22:52 52° W 23:27:33 10° NNW
Timation 2 Rocket 4.0 23:18:47 10° SW 23:24:46 80° NW 23:30:57 10° NNE
Mayak 1.1 23:24:05 10° ENE 23:25:04 11° E 23:26:02 10° E
Cosmos 2058 Rocket 4.5 23:22:18 10° N 23:26:13 28° ENE 23:29:17 14° ESE
CZ-2C R/B 3.2 23:22:06 16° SSE 23:26:23 89° ENE 23:32:02 10° NNW
ASTRO F (AKARI) 4.5 23:27:39 10° NNE 23:30:46 53° ESE 23:32:34 23° S
Aureole 2 Rocket 3.9 23:28:34 10° NW 23:31:09 24° WSW 23:33:00 14° SSW
Cosmos 2228 4.1 23:29:12 10° N 23:33:03 32° ENE 23:35:44 17° SE
Iridium 40 3.7 23:32:15 34° S 23:33:04 88° E 23:35:24 10° N
BREEZE-M R/B 2.5 23:31:37 10° SW 23:34:10 31° SSE 23:34:17 31° SSE
Lacrosse 5 rocket 1.8 23:32:41 10° WNW 23:36:53 48° SW 23:39:13 22° SSE
CENTAUR R/B 2.7 23:31:23 10° SSW 23:37:22 55° SE 23:44:17 10° NE
Cosmos 2084 3.3 23:33:46 10° SSW 23:37:56 62° SE 23:41:55 10° NE
Cosmos 2026 Rocket 4.3 23:32:24 10° N 23:38:35 58° ENE 23:43:01 19° SSE
ISS -3.5 23:35:52 10° SW 23:38:59 43° SSE 23:42:07 10° E
Cosmos 2034 Rocket 4.0 23:34:22 10° SSW 23:40:33 82° W 23:46:45 10° N
ERBS 3.6 23:37:39 10° WNW 23:40:53 41° N 23:44:08 10° E
ALOS 2 4.1 23:37:50 13° ESE 23:40:56 28° ENE 23:44:40 10° N
Terra 2.4 23:37:46 15° S 23:41:32 52° W 23:46:13 10° NNW
Cosmos 1953 4.5 23:39:48 10° NNE 23:42:27 17° ENE 23:45:04 10° ESE
Cosmos 2333 4.2 23:39:37 10° NNW 23:45:18 81° WSW 23:49:16 20° SSE
Cosmos 1805 4.3 23:42:31 10° N 23:46:10 35° ENE 23:48:20 20° SE
ATLAS 3B R/B 3.4 23:40:53 10° WSW 23:47:51 59° NW 23:54:35 10° NE
Cosmos 2360 Rocket 3.1 23:47:26 10° NW 23:52:36 38° WSW 23:56:35 16° SSW
Spot 4 3.8 23:51:17 22° SSE 23:54:27 89° WSW 23:59:20 10° NNW
